Hourly Weather Roundup
Issued by NWS Central Illinois

Home | Current Version | Previous Version | Text Only | Print | Product List | Glossary On
Versions: 1 2 3 4 5 6 7 8 9 10 11 12 13 14 15 16 17 18 19 20 21 22 23 24 25 26 27 28 29 30 31 32 33 34 35 36 37 38 39 40 41 42 43 44 45 46 47 48 49 50
000
NZUS43 KILX 252110
HWRILX

AREA WEATHER ROUNDUP
NATIONAL WEATHER SERVICE, LINCOLN IL
300 PM CST TUE NOV 25 2014


CITY           SKY/WX    TMP DP  RH WIND       PRES   REMARKS
BLOOMINGTON    CLOUDY    27  22  81 W13       30.15F WCI  16
CHAMPAIGN      CLOUDY    27  20  75 W12       30.16S WCI  17
DECATUR        CLOUDY    31  22  69 SW7       30.15F WCI  24
FLORA          MOSUNNY   32  25  75 CALM      30.18S
GALESBURG      SUNNY     28  22  77 SW6       30.15R WCI  21
JACKSONVILLE   SUNNY     38  24  58 W7        30.14F WCI  32
LACON          CLOUDY    26  19  75 W6        30.16S WCI  19
LAWRENCEVILLE  CLOUDY    33  26  75 W8        30.19R WCI  26
LITCHFIELD     SUNNY     35  24  65 W3        30.14S
$$


CITY           SKY/WX    TMP DP  RH WIND       PRES   REMARKS
LINCOLN        MOSUNNY   33  23  68 W3        30.16F
MACOMB         SUNNY     31  25  76 W3        30.17S
MATTOON        PTSUNNY   30  22  72 NW7       30.15S WCI  23
MT CARMEL AP   CLOUDY    36  28  75 NW5       30.18R WCI  32
OLNEY-NOBLE AP PTSUNNY   32  27  80 CALM      30.18S
PARIS          CLOUDY    29  24  81 W7        30.18R WCI  22
PEORIA         PTSUNNY   31  20  63 VRB6      30.15F WCI  25
PONTIAC        CLOUDY    26  21  81 W10       30.15F WCI  16
RANTOUL        CLOUDY    28  23  79 W10       30.15S WCI  19
ROBINSON       CLOUDY    32  25  76 N8        30.19S WCI  24
SPRINGFIELD    MOSUNNY   34  24  67 W7        30.15F WCI  28
TAYLORVILLE    MOSUNNY   32  27  80 W6        30.15S WCI  26
$$

...REGIONAL REPORTS...


CITY           SKY/WX    TMP DP  RH WIND       PRES   REMARKS
CHICAGO O`HARE MOSUNNY   25  16  68 W12       30.13R WCI  14
KANKAKEE       CLOUDY   N/A N/A N/A W12       30.16S
MOLINE         SUNNY     26  17  68 SW8       30.15R WCI  18
MOUNT VERNON   SUNNY     37  25  60 CALM      30.17S
PITTSFIELD     SUNNY     37  22  55 W7        30.14F WCI  31
QUINCY         SUNNY     35  21  56 W7        30.13F WCI  29
ROCKFORD       MOSUNNY   22  14  71 SW9       30.16R WCI  12
$$


CITY           SKY/WX    TMP DP  RH WIND       PRES   REMARKS
BURLINGTON     SUNNY     30  21  69 W6        30.14R WCI  24
CEDAR RAPIDS   SUNNY     27  20  75 W7        30.11R WCI  19
DES MOINES     MOSUNNY   37   6  27 VRB5      30.07F WCI  33
KIRKSVILLE     SUNNY     36  18  48 SW7       30.13S WCI  30
OTTUMWA        SUNNY     34  16  47 W5        30.10F WCI  30
ST LOUIS       MOSUNNY   41  23  48 W7        30.15S
$$


CITY           SKY/WX    TMP DP  RH WIND       PRES   REMARKS
TERRE HAUTE    CLOUDY    30  23  75 NW7       30.18R WCI  23
EVANSVILLE     CLOUDY    39  28  64 NW8       30.17R WCI  33
INDIANAPOLIS   CLOUDY    30  23  75 W6        30.15R WCI  24
LAFAYETTE      CLOUDY    26  20  77 W8        30.16R WCI  18
MADISON        CLOUDY    22  16  78 NW6       30.09R WCI  14
MILWAUKEE      CLOUDY    25  17  72 W8        30.10R WCI  16
$$




USA.gov is the U.S. government's official web portal to all federal, state and local government web resources and services.